Location: Amsterdam
(30.7274°N, 84.4357°W)
Time: 20:30:29
(UTC+00:00)

Altair - Pass Details

Date: 13 August 2024
Orbit: 1501 x 1682 km, 47.2° (Epoch: 07 September)

Event Time Altitude Azimuth Distance (km) Brightness Sun altitude
Rises 23:32:00 0° 309° (NW) 4,744 11.3 9.4°
Reaches altitude 10° 23:35:06 10° 309° (NW) 3,736 10.9 8.8°
Maximum altitude 23:44:32 89° 37° (NE) 1,519 7.7 6.8°
Drops below altitude 10° 23:53:43 10° 131° (SE) 3,643 9.0 4.9°
Sets 23:56:43 0° 131° (SE) 4,621 9.5 4.3°
